Gerald R Ford International Airport (GRR)


Airport Diagram
Current Weather/Forecast (VFR Conditions)
METAR KGRR 171553Z 21010KT 10SM FEW050 FEW250 26/19 A3012 RMK AO2 SLP197 T02610189 $
TAF KGRR 171121Z 1712/1812 16005KT P6SM FEW070 FEW250 FM171500 20008KT P6SM FEW040 FEW250 FM180000 21005KT P6SM VCSH BKN050 FM180300 31006KT P6SM SCT060 BKN090 FM180600 01010KT P6SM SCT025 BKN035

All Charts
General
Chart Name Download
AIRPORT DIAGRAM
TAKEOFF MINIMUMS
ALTERNATE MINIMUMS
RADAR MINIMUMS
HOT SPOT

Approaches
Chart Name Download
ILS OR LOC RWY 08R
ILS OR LOC RWY 26L
ILS OR LOC RWY 35
ILS RWY 35 (SA CAT I - II)
RNAV (GPS) RWY 08L
RNAV (GPS) RWY 08R
RNAV (GPS) RWY 17
RNAV (GPS) RWY 26L
RNAV (GPS) RWY 26R
RNAV (GPS) RWY 35
VOR RWY 17